Theta_e
303 303 304 305 307 306 308 309 310 313 315 317 319 321 325 328 329 330 331 331 333 333 333 332 332 333 334 334 332 332 332 330 331 332 332 332 332 333 332 332 331 332 333 332 333 332 331 331 332 333 333 331 331 331 331 331 331 331 330 328 326 325 324 322 320 320 323 327 329 331 333 334 332 332 330 329 329 330 326 325 325 325 324 323 321
303 303 303 304 304 305 306 307 307 309 311 313 315 317 321 324 327 329 329 331 332 331 332 333 332 332 332 333 332 332 332 330 329 331 331 332 333 334 333 331 330 330 331 331 331 331 331 331 332 333 334 333 331 331 330 330 331 331 330 328 326 326 326 323 321 323 322 323 326 330 331 334 331 333 329 329 328 328 326 326 326 325 323 322 320
303 303 303 302 303 304 304 304 305 306 308 310 312 315 317 321 325 328 329 330 331 330 331 332 332 332 332 332 331 331 332 330 330 330 330 332 332 332 332 332 330 329 329 329 330 330 329 330 331 333 332 331 330 331 331 330 331 331 330 329 327 327 327 326 323 322 322 322 326 328 330 332 331 331 331 330 328 326 326 325 324 324 323 321 319
303 302 302 302 301 302 302 302 303 304 305 308 310 313 315 318 322 325 328 329 329 330 332 332 330 330 330 332 331 331 331 331 331 331 332 332 332 332 332 332 331 330 329 330 330 330 329 328 329 329 328 328 328 330 331 331 331 331 329 328 328 327 327 326 326 324 323 323 324 327 329 330 329 332 331 330 325 324 325 324 324 322 321 319 316
302 302 301 300 300 300 300 301 301 302 304 306 309 312 315 317 320 323 326 327 327 327 329 331 330 330 330 331 331 331 331 332 331 331 332 332 331 331 331 332 331 331 331 330 332 330 329 329 330 329 328 329 328 330 331 330 331 330 329 328 327 327 328 327 326 326 325 324 324 324 327 328 329 330 329 327 324 322 321 321 322 320 317 316 315
301 302 301 300 299 299 300 300 301 301 304 306 309 312 315 317 319 322 325 326 328 329 329 330 330 331 331 331 331 331 332 332 332 332 332 332 332 331 331 331 332 332 331 330 330 330 330 330 330 331 329 329 329 329 330 329 329 329 329 328 327 326 326 326 326 326 326 325 324 322 324 325 325 327 328 327 325 322 319 319 319 319 316 313 313
301 301 300 299 299 299 299 299 301 301 303 305 309 311 313 315 317 319 322 325 327 327 329 329 329 329 330 330 330 331 331 331 331 332 332 331 330 330 330 331 332 332 330 330 331 331 330 330 331 331 331 331 330 330 330 329 329 329 329 328 327 326 325 325 325 325 325 324 323 324 324 323 324 324 327 328 327 325 320 317 317 319 315 314 312
300 300 299 298 298 298 299 300 301 302 304 306 307 310 313 314 316 318 322 324 326 327 328 328 327 328 329 330 330 330 330 330 330 331 332 331 330 329 330 330 331 331 331 331 331 331 331 331 331 332 332 332 331 331 331 329 329 328 328 328 326 325 325 325 325 324 324 323 323 322 323 323 321 323 327 327 324 321 321 319 316 316 315 314 313
299 298 298 298 298 298 299 300 302 302 303 304 306 309 312 314 316 318 321 323 326 327 328 328 327 328 329 330 330 330 329 330 330 330 331 332 331 329 329 330 330 329 328 328 329 331 331 331 331 332 334 336 336 334 334 333 329 327 327 328 326 325 325 325 325 325 324 323 322 324 323 322 322 322 322 323 323 322 321 321 318 318 317 314 314
298 298 297 298 298 299 299 300 301 301 302 304 306 309 311 314 316 318 320 322 324 326 329 328 327 326 328 329 330 329 329 330 331 326 326 331 331 331 330 330 329 328 327 326 328 330 330 331 332 338 336 336 335 328 323 326 330 331 328 328 326 325 325 325 325 324 324 322 322 322 321 321 322 322 322 324 325 323 320 319 317 316 315 313 313
298 297 297 298 298 298 299 299 300 300 302 304 305 306 308 312 315 317 319 321 324 326 328 326 326 328 328 329 329 328 328 329 322 311 313 320 331 331 330 328 328 328 328 328 328 329 330 330 330 334 335 335 332 321 318 319 319 320 323 329 331 327 325 325 324 325 324 323 323 322 322 321 322 323 322 324 324 322 320 319 318 316 314 312 311
297 297 298 298 298 298 299 299 299 300 302 302 303 304 306 310 314 316 318 320 323 325 325 326 325 326 328 329 328 328 328 327 311 309 310 312 323 330 329 328 328 329 330 329 329 328 327 327 330 333 331 331 330 327 322 318 314 314 315 317 318 321 321 326 325 324 324 323 322 323 323 322 323 324 322 322 323 322 321 319 318 316 314 314 312
297 297 297 298 298 298 298 298 299 300 301 301 302 304 306 309 313 315 316 317 318 321 323 325 325 326 327 328 327 328 327 318 307 308 308 309 312 326 329 329 329 329 329 328 326 325 325 325 327 329 332 336 333 328 327 325 317 314 317 318 320 316 308 310 316 328 327 325 323 323 324 324 323 324 325 323 323 322 319 318 318 318 317 316 314
296 297 297 297 297 298 298 298 299 299 300 301 302 303 306 309 314 315 316 317 317 318 321 323 325 325 326 327 326 328 327 318 305 306 307 307 308 317 328 329 328 328 328 327 326 325 325 325 326 327 330 331 329 328 327 327 323 322 323 324 325 328 316 309 310 315 325 327 326 324 325 326 325 326 327 324 322 321 319 318 319 318 317 317 318
296 296 296 297 297 298 298 298 298 299 299 301 302 303 306 310 313 314 315 315 314 314 317 322 324 324 326 326 326 326 327 311 304 304 305 305 305 316 328 328 328 327 327 327 327 326 325 326 327 327 328 327 327 328 326 325 324 324 324 326 326 327 325 322 324 324 327 328 327 327 327 328 328 328 328 326 325 324 322 321 320 320 319 318 318
296 296 297 297 298 298 298 297 297 298 299 301 302 303 306 310 312 314 314 313 313 314 316 321 323 325 326 326 326 325 319 302 302 302 302 303 307 327 328 327 326 326 326 326 326 327 327 327 327 327 327 326 327 316 322 325 325 324 324 325 325 325 324 327 317 319 329 328 328 327 327 329 322 328 328 327 326 325 326 323 322 320 318 316 316
297 297 299 298 299 298 298 297 298 299 300 301 302 304 306 310 312 314 312 311 311 311 312 318 325 325 325 326 325 320 311 302 301 301 302 303 314 328 327 327 326 325 325 325 326 326 326 326 326 326 326 326 318 306 308 321 325 325 325 325 325 324 323 324 313 309 311 310 310 311 311 310 310 312 312 313 322 324 324 322 320 320 317 315 315
297 298 298 298 298 297 298 298 298 300 300 301 302 304 308 311 312 313 311 310 310 311 315 320 324 324 324 324 322 316 314 306 299 301 302 305 321 327 326 325 324 324 324 325 324 325 327 333 330 326 325 325 309 305 304 320 325 325 325 324 323 322 322 324 322 316 304 305 302 304 306 305 304 306 307 307 309 320 325 321 321 321 319 318 315
297 297 298 298 297 298 299 299 299 300 301 302 303 306 309 311 313 313 313 313 312 315 322 323 322 323 324 323 326 319 314 309 299 301 303 307 319 327 326 324 323 323 324 323 323 324 327 332 332 327 327 322 304 304 303 321 326 326 325 324 323 322 324 324 323 320 319 321 320 319 314 313 318 319 319 306 308 323 326 326 323 322 319 318 317
299 298 298 297 298 299 299 301 301 301 301 302 304 307 310 311 311 311 311 311 312 316 321 322 322 323 324 323 323 319 314 310 305 301 304 307 312 326 325 324 323 323 323 322 322 323 326 328 326 311 309 305 302 301 302 309 324 324 325 325 323 323 325 325 324 323 321 322 323 323 323 320 321 322 322 316 317 327 325 326 325 324 322 320 318
298 298 296 297 298 298 299 300 301 301 302 303 306 310 310 310 310 310 309 310 311 314 318 320 322 323 323 321 318 316 314 311 307 303 307 308 308 317 325 325 324 323 322 321 323 323 322 322 319 308 302 301 302 300 302 303 313 325 325 325 325 322 322 325 326 330 322 321 322 322 322 320 320 320 321 321 319 321 322 321 323 324 323 321 319
297 296 295 297 298 299 300 300 302 302 303 305 307 309 310 310 310 310 310 310 311 311 314 315 319 319 319 320 320 319 320 317 310 303 305 305 307 309 323 325 324 324 322 323 324 323 321 318 316 305 300 301 301 301 302 303 304 325 324 310 303 305 325 324 325 324 321 321 320 321 321 321 321 320 320 321 322 323 324 324 322 323 324 324 323
296 296 296 298 299 300 300 301 301 302 304 306 309 309 310 309 308 309 308 307 306 307 312 312 316 316 317 318 316 313 311 311 307 310 304 304 305 308 310 316 309 326 324 324 323 321 320 318 315 303 297 300 299 299 300 300 306 317 308 303 302 302 318 324 323 322 320 320 320 321 320 322 322 321 320 321 322 322 322 323 322 322 323 323 321
295 296 297 298 298 299 300 302 302 303 305 307 310 309 308 308 308 308 308 307 304 306 307 311 315 309 307 309 313 313 310 307 302 301 302 298 299 299 301 304 309 322 326 325 322 319 317 318 312 296 296 297 297 297 298 300 309 307 303 301 299 306 324 321 321 322 319 318 320 321 321 322 323 322 322 322 323 322 322 322 322 324 323 324 322
296 296 296 297 298 299 300 301 302 303 306 309 308 308 308 308 307 305 307 305 304 303 305 313 317 314 313 311 311 311 310 309 308 303 299 299 298 299 300 302 304 308 321 322 318 319 308 301 296 296 296 296 295 295 296 298 300 302 297 297 315 319 322 321 322 322 321 321 321 321 320 320 323 324 324 323 321 321 319 319 322 323 323 324 322
295 296 297 298 299 299 300 301 302 303 307 308 308 309 308 308 307 306 306 305 303 303 304 312 316 316 314 312 310 309 309 309 309 309 310 309 302 298 300 303 308 306 310 307 300 298 296 295 294 295 297 299 305 308 310 305 298 299 296 304 319 319 320 319 319 321 321 321 321 321 321 318 317 317 320 321 321 322 322 322 320 321 321 322 321
297 297 297 299 299 299 299 300 301 302 305 306 306 307 307 307 307 307 306 303 302 302 304 310 313 313 311 309 309 309 309 309 310 310 310 311 313 313 312 310 307 306 310 310 308 303 301 304 300 298 298 297 300 302 305 300 303 305 306 314 316 318 317 319 319 320 319 318 318 318 316 316 315 315 320 320 322 322 322 321 321 322 320 319 320
296 297 299 300 299 298 298 301 301 300 303 304 305 306 307 307 306 306 306 304 303 302 304 308 310 310 308 308 309 309 309 311 311 311 312 313 312 310 310 311 312 315 315 314 313 312 307 303 303 309 310 311 313 313 311 310 309 306 309 312 315 316 320 324 323 319 317 317 315 314 313 314 316 319 316 317 320 319 318 320 321 322 319 320 316
297 298 300 300 298 298 299 300 300 301 302 304 305 306 304 301 305 307 308 307 306 306 306 306 307 307 306 305 306 306 309 310 311 306 310 303 306 305 305 306 307 308 309 304 312 310 310 310 308 310 311 310 310 313 313 313 313 311 312 312 314 315 316 319 321 321 321 318 319 319 319 318 318 315 315 314 316 318 316 319 318 321 319 320 321
297 298 299 299 298 298 299 300 301 301 302 302 303 304 299 294 297 303 304 302 298 299 300 306 307 305 303 303 306 311 311 309 298 297 296 295 295 296 296 297 297 299 297 297 302 302 302 302 303 305 307 309 310 310 312 314 314 313 313 307 312 314 315 318 318 318 316 317 320 318 319 319 319 318 317 317 314 314 314 313 318 319 319 320 320
299 298 299 298 297 298 299 299 299 300 302 303 302 301 302 299 292 292 294 294 295 295 295 297 300 300 303 299 295 293 293 292 293 293 293 293 293 292 293 293 293 293 294 299 300 299 299 299 299 299 300 304 305 307 310 312 312 313 314 312 313 312 312 316 318 317 316 317 318 320 320 320 320 320 317 316 317 316 315 315 317 317 318 319 320
299 298 298 299 298 297 299 299 299 299 301 303 301 300 302 298 298 293 292 292 292 293 294 294 295 296 296 298 300 295 292 292 292 293 293 293 292 292 293 293 293 294 294 296 298 298 298 298 298 298 298 298 298 299 302 307 310 312 313 313 313 313 313 315 316 319 318 319 319 320 320 321 322 320 320 318 314 317 318 317 318 318 318 319 319
298 298 298 299 298 298 298 299 299 299 300 300 300 299 299 298 297 298 298 293 292 292 293 294 295 295 295 295 296 295 293 292 292 292 292 293 292 292 292 293 294 295 297 299 299 298 298 299 297 298 297 298 298 299 299 300 301 305 310 312 312 311 313 313 312 315 315 317 318 319 320 321 319 317 310 312 314 317 317 317 318 318 318 319 317
299 299 299 299 298 298 298 299 299 299 300 301 300 300 299 298 298 299 298 299 300 296 293 292 293 294 294 293 292 291 290 291 291 291 292 292 291 292 293 293 294 295 296 298 298 298 297 298 298 298 298 298 298 299 299 298 298 299 302 306 308 310 311 311 311 312 313 312 315 314 314 315 316 315 315 315 315 316 317 317 318 318 318 319 319
299 297 296 297 299 299 300 301 301 300 300 301 301 299 299 299 298 298 298 298 297 296 297 296 294 293 295 294 292 291 290 290 291 291 291 292 293 293 295 297 298 298 298 297 297 297 297 297 297 297 296 297 297 297 298 298 298 298 298 299 300 302 304 307 310 311 312 313 313 313 312 313 315 314 315 315 314 314 315 316 317 318 318 318 318
300 300 300 298 300 301 301 300 301 300 300 301 300 299 297 298 299 299 298 298 298 298 297 298 296 292 293 293 292 292 291 290 290 290 290 291 292 294 298 298 298 297 297 298 297 296 297 297 299 299 299 299 301 300 300 301 301 301 301 301 302 304 305 306 306 310 312 312 311 310 310 312 314 313 315 315 314 315 314 314 316 315 316 318 318
302 301 301 302 303 304 304 302 301 300 296 297 299 299 298 298 298 299 300 299 298 298 298 298 296 295 293 294 294 291 291 289 289 290 291 293 294 297 298 298 297 296 296 296 297 299 300 300 300 300 300 301 302 303 303 304 304 305 304 306 305 305 304 305 306 307 310 311 314 314 315 314 313 315 315 315 313 314 315 314 313 310 312 311 305
302 300 299 298 300 301 301 300 299 295 298 298 298 298 298 298 298 299 299 298 298 298 298 297 297 296 294 293 300 293 290 291 293 293 293 293 293 295 296 295 297 298 298 299 299 300 300 300 300 299 299 300 300 301 301 302 302 302 303 304 304 303 302 302 302 304 305 307 308 308 308 311 313 316 310 314 314 314 314 313 314 315 311 304 309
300 293 289 290 293 298 297 296 296 296 296 297 297 297 297 298 299 299 299 299 298 297 295 295 295 294 293 294 293 296 294 293 293 293 294 295 296 297 298 297 297 296 297 298 298 298 298 298 298 298 297 297 297 298 298 298 299 299 300 300 300 301 300 301 301 301 302 303 304 304 305 306 307 309 310 312 311 311 311 313 313 313 314 313 313
295 294 291 289 293 293 293 293 294 294 293 294 295 296 297 297 299 299 299 297 295 294 293 293 292 293 294 295 294 295 295 295 295 296 296 295 294 294 294 293 293 293 293 294 295 296 296 295 295 295 294 294 295 295 295 295 296 297 297 297 297 297 298 299 299 299 300 300 300 301 301 302 303 305 306 307 308 309 309 310 310 311 312 312 314
293 292 290 289 289 292 291 292 292 292 292 292 292 293 293 294 295 297 297 295 294 292 292 291 291 291 292 293 294 296 296 294 293 292 291 291 291 290 290 290 291 290 290 290 291 292 292 292 292 292 291 291 291 292 292 292 293 293 293 294 294 293 295 296 295 295 296 295 296 297 297 298 298 301 300 302 300 304 306 307 308 309 309 309 311
292 291 290 290 290 290 290 290 290 291 290 289 290 291 291 292 294 296 295 294 292 291 290 290 290 289 290 291 291 292 291 290 290 289 289 289 288 288 288 288 288 288 288 288 289 289 290 290 290 290 289 289 289 289 289 289 290 290 290 290 291 291 291 293 293 293 294 293 293 294 294 292 291 292 296 298 302 304 306 307 309 308 309 309 307
291 291 290 290 289 289 289 288 288 288 289 288 288 287 289 291 293 293 293 292 291 291 290 289 289 289 288 287 288 288 289 288 287 288 287 287 287 287 287 287 287 287 287 287 288 288 288 288 288 288 288 288 288 287 287 287 287 288 288 289 289 289 290 290 290 291 292 292 292 291 292 292 291 291 293 294 299 303 305 305 304 305 304 307 305
290 290 289 289 288 288 288 288 288 288 288 287 287 287 288 289 290 292 292 291 290 289 289 288 288 288 288 287 287 287 287 287 287 287 287 286 286 286 286 286 286 286 286 286 286 287 287 286 286 286 286 286 287 287 287 287 286 287 287 287 287 287 288 288 289 289 289 289 289 289 290 290 290 291 290 289 295 295 297 300 301 301 300 303 304
290 289 288 288 288 287 287 287 287 287 287 287 287 288 287 288 288 288 289 289 288 288 287 287 287 287 286 286 286 286 286 286 286 286 285 285 285 285 285 285 284 284 284 284 285 285 285 285 285 285 285 285 285 286 286 286 287 286 287 287 286 286 287 288 288 289 289 289 289 289 289 289 290 291 291 292 291 293 292 293 294 293 296 298 300
290 289 288 288 287 286 287 287 286 286 286 286 286 286 287 287 287 287 287 287 287 286 286 286 286 286 285 285 285 285 285 285 285 285 285 285 285 284 284 284 284 283 283 283 284 284 283 283 283 283 283 283 284 285 285 285 285 286 286 287 287 287 287 288 288 288 288 289 289 289 289 289 290 290 289 291 291 292 294 295 296 295 296 296 298
290 289 288 288 287 286 286 286 286 286 285 285 285 285 285 286 286 286 286 286 286 285 285 285 285 285 285 284 284 284 284 284 284 284 284 284 284 284 284 284 283 283 283 283 283 283 283 282 282 282 282 282 283 283 284 284 284 285 285 286 286 286 286 286 287 288 288 289 290 289 289 289 289 291 291 291 291 292 292 293 294 295 297 295 296
289 288 288 288 287 286 286 286 286 285 285 285 285 285 285 285 285 285 285 285 285 285 285 285 284 284 284 284 284 284 284 283 284 284 284 284 283 284 284 283 283 283 283 283 283 283 283 282 282 282 281 282 282 282 283 283 284 284 284 285 285 285 285 285 286 287 288 288 289 290 290 291 291 292 292 293 293 293 292 292 292 293 294 294 295
289 288 287 287 287 286 286 285 285 285 285 285 285 285 285 285 284 285 285 284 284 284 284 284 284 284 284 284 284 283 283 283 283 283 283 283 283 283 283 283 283 283 283 282 282 282 282 282 282 282 281 281 281 281 282 282 283 283 283 284 284 284 284 284 285 286 285 286 288 291 292 292 292 292 292 293 293 294 294 295 294 293 293 293 293
288 287 286 286 286 286 286 286 286 285 285 285 285 285 285 285 284 284 284 284 284 284 284 284 284 284 284 283 283 283 283 283 283 283 283 283 283 283 283 283 283 283 283 282 282 282 281 281 281 281 281 281 281 281 281 281 282 282 282 283 283 283 284 284 284 284 285 286 288 290 291 292 292 292 292 292 292 292 292 291 292 292 293 294 294
287 286 285 285 284 284 284 285 285 285 285 285 285 284 284 284 284 285 284 284 284 284 284 284 284 284 283 284 283 283 283 283 283 283 283 283 283 283 283 283 283 283 282 282 281 281 280 280 280 280 281 281 280 280 280 280 280 280 281 281 282 282 283 284 285 285 285 285 287 287 288 288 289 289 289 289 289 289 287 287 288 289 290 291 292
Wind_Speed
4 6 9 11 11 12 12 12 14 11 11 11 12 12 11 11 12 12 13 12 12 12 13 13 12 11 11 12 12 11 11 12 10 9 10 12 11 12 12 11 10 10 10 10 9 8 9 10 9 9 8 8 7 7 6 6 5 6 5 6 6 5 6 6 6 4 0 1 5 6 8 8 7 8 9 7 7 6 6 6 7 6 6 5 4
3 4 6 8 11 11 12 11 12 12 12 12 12 12 11 11 12 13 14 13 11 12 14 12 10 11 12 12 10 12 13 13 11 9 10 11 12 10 10 11 11 9 8 9 10 8 8 10 10 10 9 9 8 8 7 7 7 7 6 7 7 7 6 6 6 7 7 2 3 5 7 8 7 8 9 9 8 7 7 6 4 6 6 5 4
3 3 4 7 10 11 11 10 11 13 13 12 12 12 12 12 12 13 13 13 10 13 14 12 11 12 12 11 10 11 11 11 12 12 12 12 13 10 11 12 11 11 12 11 10 9 10 10 10 8 6 7 7 8 7 7 7 8 7 6 7 6 6 5 5 5 8 5 4 7 8 8 7 9 8 7 7 8 8 7 6 4 4 5 5
4 4 4 7 9 11 11 11 12 12 13 12 14 13 12 12 12 13 14 13 12 11 12 11 11 10 12 11 12 12 12 10 11 12 13 13 13 12 12 11 11 11 11 11 11 10 11 10 9 7 6 8 9 7 7 7 8 7 7 6 6 7 6 5 5 6 5 8 4 7 7 8 5 7 7 7 8 7 7 6 5 5 5 4 4
4 4 4 6 9 11 12 12 12 13 13 12 14 14 13 12 12 13 14 14 13 13 12 11 13 15 15 13 12 12 12 11 11 12 12 11 12 12 12 12 12 13 12 11 11 10 11 11 10 8 10 10 9 8 7 9 7 6 7 6 6 6 5 6 6 5 7 8 6 3 6 6 6 8 8 9 6 5 4 6 7 6 5 4 4
4 4 4 6 8 11 11 12 12 13 14 14 14 14 13 12 13 13 14 16 14 13 11 12 14 15 14 13 13 11 10 12 13 13 13 13 12 12 11 12 12 11 11 10 10 11 11 11 9 9 11 11 9 9 8 9 8 7 8 7 7 6 7 5 5 6 8 8 9 5 4 6 5 7 9 9 10 7 5 3 3 4 5 4 3
4 4 4 4 6 9 11 11 12 12 13 13 13 14 14 13 14 15 14 15 14 13 13 13 13 10 8 10 10 11 12 11 11 11 12 12 12 11 11 12 12 12 11 12 12 11 11 10 9 9 10 11 10 10 9 8 8 8 9 8 8 7 7 6 5 6 7 8 6 8 8 3 6 8 7 8 9 9 8 6 5 4 4 6 5
5 5 4 5 6 9 10 10 11 12 12 13 14 14 14 13 14 14 14 15 15 14 13 13 11 12 13 13 12 10 10 10 10 11 11 12 11 11 11 11 11 11 12 12 11 10 10 10 9 10 11 10 10 9 9 9 8 8 7 7 8 8 8 7 6 6 7 7 8 8 6 7 4 3 6 7 6 3 6 6 9 7 7 5 4
6 5 5 5 6 8 9 9 10 11 12 13 14 14 14 14 14 14 14 16 15 14 12 14 16 14 11 11 11 11 12 12 11 12 11 12 12 11 12 12 12 12 11 12 11 10 10 9 9 9 11 12 12 9 9 10 9 9 7 8 8 9 8 8 8 7 7 8 7 7 8 8 7 8 9 10 11 10 8 6 6 6 5 5 4
6 6 5 6 6 8 9 10 11 12 12 13 14 14 14 14 14 14 14 16 16 15 12 15 15 13 11 10 10 11 12 11 14 19 16 11 11 11 10 10 11 10 10 11 11 11 10 8 8 14 9 10 14 15 12 11 11 10 10 9 10 9 9 9 9 9 9 9 10 10 9 10 9 10 10 10 8 6 8 7 8 6 5 3 1
7 6 7 6 7 7 8 10 11 12 12 12 13 15 17 15 14 14 14 16 15 12 11 9 6 11 13 12 13 12 12 11 18 17 18 18 13 12 12 11 9 10 10 11 11 10 8 6 4 3 10 13 15 17 15 15 14 12 13 14 12 11 10 10 10 10 10 10 9 9 10 10 10 9 9 9 8 10 10 9 8 7 8 7 6
8 8 6 6 6 7 8 10 11 12 12 13 14 15 16 16 14 13 14 15 12 11 12 12 9 8 11 12 12 12 12 15 19 19 20 20 18 13 12 11 11 10 10 9 8 7 8 8 7 8 9 11 10 11 13 15 14 12 13 14 14 14 13 13 12 9 9 9 9 10 9 10 10 8 8 8 9 8 7 8 8 10 9 8 5
8 7 7 6 7 7 8 10 11 12 13 13 14 15 17 17 15 13 14 13 12 12 12 14 14 12 12 12 12 12 12 14 17 19 20 20 20 16 11 11 11 10 9 8 8 8 7 6 8 5 7 16 11 10 9 9 9 10 11 12 12 14 11 9 11 13 10 9 10 10 11 9 9 8 9 11 8 9 8 8 7 8 8 9 7
7 7 6 6 6 7 8 9 11 12 13 14 14 15 16 17 14 12 13 13 10 11 12 16 15 15 13 13 12 11 13 13 19 19 20 21 20 16 10 11 10 10 10 10 9 9 10 10 10 9 9 10 10 10 9 9 10 8 6 5 6 9 8 9 11 9 10 11 12 12 10 8 10 9 7 7 10 10 9 10 8 8 9 11 8
7 6 6 6 6 7 8 9 11 12 13 14 15 15 16 15 13 12 12 12 12 11 13 15 15 14 15 13 10 11 11 15 19 20 19 19 18 15 10 10 10 8 8 9 11 11 11 11 11 11 12 11 9 10 10 9 9 8 9 10 9 10 9 8 8 8 7 7 9 11 12 10 9 9 9 8 11 10 11 12 12 10 6 2 3
7 6 6 6 7 7 7 9 11 12 13 14 15 16 16 14 13 13 13 13 12 11 11 12 15 16 14 13 13 12 9 18 19 18 18 17 19 12 11 11 10 10 9 9 10 11 11 11 11 12 11 11 14 18 14 11 10 11 11 10 9 8 7 6 8 9 7 7 6 5 6 8 8 9 10 9 7 6 6 5 6 6 7 6 7
7 7 6 7 7 7 7 8 11 12 13 14 16 16 15 14 13 12 13 13 12 13 13 15 16 15 14 13 13 11 11 15 19 18 19 20 17 10 11 10 10 11 10 10 10 9 9 11 12 12 13 14 17 19 17 16 11 12 11 10 8 7 7 4 5 3 2 3 4 2 3 4 5 7 9 11 9 8 8 8 7 7 7 7 5
8 7 7 7 7 6 7 9 11 12 13 14 16 15 14 12 11 12 13 13 12 15 16 15 13 12 16 14 11 12 11 12 18 19 20 22 16 12 10 10 10 11 10 8 7 8 10 17 14 12 13 11 16 19 17 15 11 11 11 11 9 8 7 4 4 3 3 5 7 5 4 7 9 10 12 12 12 10 9 9 8 8 8 7 7
8 8 8 6 5 6 7 9 10 11 14 15 15 15 13 11 12 12 12 12 14 15 11 12 12 9 11 12 19 15 11 11 17 20 21 20 15 10 10 10 11 10 10 8 6 7 8 12 16 13 12 13 18 18 17 14 9 10 10 10 10 9 8 7 7 6 3 2 2 4 3 3 4 5 6 9 11 10 8 8 8 9 8 7 6
9 6 5 4 4 7 7 9 11 12 14 15 15 13 10 10 12 11 12 11 12 16 9 9 14 12 11 11 11 13 11 9 10 14 14 13 14 11 9 10 11 11 9 9 8 6 7 7 10 14 13 15 18 16 16 14 10 8 7 8 8 10 7 8 7 7 6 6 5 3 3 4 3 3 3 4 6 6 7 7 8 8 8 8 7
5 5 3 4 6 7 7 9 12 14 13 14 14 11 8 9 11 11 11 10 12 15 10 3 7 10 10 9 9 8 11 13 13 19 18 16 14 13 11 11 11 10 9 9 8 8 7 7 5 10 15 16 17 16 15 13 9 8 7 9 7 4 8 7 8 10 6 5 5 4 4 4 3 3 4 4 4 5 4 3 5 7 8 8 7
4 3 3 5 6 7 9 11 12 13 13 13 12 9 7 10 12 11 9 6 12 8 7 7 2 11 11 10 8 7 8 14 13 9 16 16 17 10 8 10 11 11 9 8 8 7 8 7 6 8 16 17 16 16 16 14 11 6 8 7 11 10 7 3 4 5 5 5 5 4 4 4 4 3 3 4 5 6 5 5 4 5 6 8 10
2 2 3 5 6 8 10 12 13 12 13 11 9 8 7 8 9 8 8 6 2 2 3 5 6 9 12 12 11 10 8 6 6 11 14 14 15 15 12 8 10 10 11 10 9 8 6 7 7 12 13 14 13 12 11 10 5 6 8 10 9 9 7 5 5 5 5 5 5 5 5 4 4 4 5 5 4 4 5 5 4 4 4 4 4
1 2 4 5 6 9 11 12 13 12 12 10 6 6 7 7 8 8 8 3 1 2 1 1 4 12 13 13 11 8 6 6 8 10 12 15 14 13 12 11 10 8 8 8 8 8 7 6 8 14 14 13 12 11 10 9 7 5 5 10 11 8 6 6 6 6 6 5 6 6 6 5 5 4 5 5 6 6 6 5 5 5 5 5 4
2 3 4 5 7 10 11 12 12 12 11 4 1 2 6 7 8 7 6 6 4 3 1 4 7 10 11 11 7 4 4 6 8 10 13 14 15 14 14 15 14 14 9 7 7 7 8 12 13 12 12 11 10 9 6 6 5 6 7 9 9 6 6 6 7 7 7 6 6 6 6 7 8 7 7 6 4 4 3 3 4 4 4 4 4
1 4 4 5 8 11 12 13 13 14 11 5 5 4 6 8 9 5 6 6 6 5 5 6 7 8 9 9 8 7 8 9 8 8 8 11 12 14 16 17 16 16 13 10 12 14 13 13 14 12 10 8 7 5 3 2 2 5 8 7 4 6 6 7 7 7 7 6 6 7 6 5 3 2 4 5 5 6 6 5 5 5 5 6 5
1 3 4 5 9 12 14 9 10 8 8 8 7 6 7 8 7 4 3 6 6 6 6 7 7 8 9 9 8 7 6 6 6 6 5 7 7 9 11 12 14 15 12 10 10 9 8 8 7 9 9 10 8 6 6 6 4 1 2 3 4 4 4 6 7 7 6 6 5 5 3 3 2 4 5 6 7 6 6 6 6 6 6 5 6
2 3 3 5 8 10 13 16 16 13 10 9 9 9 8 9 8 5 7 5 6 6 6 6 7 8 8 8 9 8 7 6 5 6 6 7 8 7 8 8 8 7 8 7 7 7 6 8 9 6 5 5 5 4 4 4 4 3 1 0 0 2 3 4 4 4 4 4 3 3 2 3 4 6 5 6 6 6 5 6 7 6 6 5 4
3 3 2 6 8 11 11 9 10 10 9 9 7 4 7 8 7 3 4 4 6 6 6 7 6 6 7 8 10 9 7 7 6 4 6 7 8 8 8 8 8 8 7 9 7 7 7 7 6 5 4 4 3 3 3 3 3 4 3 1 1 0 1 3 5 5 5 5 5 5 5 4 4 4 4 4 5 5 4 5 5 6 5 6 8
2 3 3 6 8 10 10 8 7 7 7 8 8 6 6 4 6 4 5 5 7 9 9 9 6 7 9 6 5 10 9 7 8 13 13 14 14 14 12 12 10 8 8 10 7 6 6 6 5 4 3 3 3 2 1 2 2 3 3 3 3 3 2 3 3 1 2 2 2 2 2 2 3 3 4 5 3 3 4 6 6 6 5 6 7
1 4 5 5 9 9 10 10 11 10 8 8 7 5 3 6 12 13 8 5 6 11 12 17 14 8 13 10 11 17 14 14 14 14 15 14 14 13 13 12 11 8 4 7 7 6 6 6 6 6 5 4 3 2 1 1 0 0 1 3 3 3 3 4 4 3 3 2 3 4 3 4 5 5 5 4 5 4 4 4 3 4 6 7 8
0 3 5 4 9 8 8 9 10 9 9 7 8 7 7 1 7 10 11 10 10 10 12 14 14 15 16 15 10 7 9 12 15 15 15 15 14 13 12 12 10 10 9 11 8 7 6 7 6 6 5 6 3 2 2 1 1 1 1 0 1 2 4 6 5 5 5 4 5 5 5 5 6 6 5 5 5 5 6 5 5 6 6 6 7
1 0 1 3 6 9 7 9 9 9 9 8 7 5 5 5 9 7 7 11 12 11 11 13 15 14 14 12 12 12 11 10 14 15 14 14 14 13 12 11 10 10 12 9 7 6 5 6 5 5 5 5 3 3 1 1 0 1 2 2 3 3 5 3 0 3 5 6 5 6 6 5 5 5 3 3 5 4 5 6 6 6 6 7 6
1 1 1 2 5 8 8 8 9 10 9 8 7 7 7 6 6 8 9 9 9 10 13 12 12 14 14 15 15 14 11 10 10 14 14 12 11 10 11 9 10 10 10 7 7 6 5 6 5 5 5 4 4 3 2 2 2 1 1 2 4 4 3 2 4 5 4 5 6 6 6 6 6 6 5 5 5 5 5 6 5 6 6 7 7
2 5 7 3 2 5 5 6 8 9 8 7 6 6 6 6 5 8 8 7 7 5 3 6 9 9 9 10 12 12 12 11 10 10 10 9 11 10 10 8 8 8 9 7 7 6 7 6 5 4 4 5 6 6 6 5 4 3 2 1 2 3 3 1 3 2 4 4 5 5 6 6 6 6 6 5 5 5 6 6 6 6 6 6 6
2 2 4 6 5 4 5 4 6 7 7 6 5 4 4 3 7 6 7 8 7 7 6 6 5 5 10 9 10 10 11 11 11 11 11 10 5 5 8 8 8 7 7 7 7 7 7 6 7 7 7 7 7 8 7 8 8 8 7 8 8 7 8 7 6 2 1 1 3 3 4 4 4 5 4 5 5 7 6 5 5 6 6 6 5
5 5 3 1 1 1 2 4 4 6 5 4 4 5 5 6 7 7 8 8 8 7 7 6 8 7 7 5 7 11 12 15 19 17 12 10 12 11 8 7 6 7 8 8 8 8 9 8 8 8 8 8 7 7 7 8 7 7 7 8 7 8 8 7 7 7 8 7 6 5 2 2 4 4 5 6 5 5 5 5 6 6 7 7 6
4 6 5 5 3 4 5 6 7 8 8 7 6 6 6 6 7 7 8 8 9 9 9 10 8 7 5 2 2 3 8 12 12 11 10 10 9 8 7 8 9 9 9 8 7 8 8 8 8 8 7 7 7 7 7 7 7 7 7 7 7 7 7 7 8 7 7 6 7 7 7 7 7 6 3 4 6 6 6 6 5 6 6 5 5
7 11 14 11 6 6 5 7 8 8 7 7 7 7 8 8 8 8 8 8 9 9 7 8 8 7 4 1 5 4 8 7 8 8 8 8 8 8 9 9 8 9 8 8 8 8 7 8 7 7 7 7 7 7 7 6 6 7 6 6 6 6 8 7 7 6 6 6 6 5 6 5 5 5 6 6 5 5 5 5 5 5 6 5 5
8 7 9 13 8 9 8 7 7 8 7 7 7 7 7 8 8 7 8 10 9 9 9 10 10 8 6 2 4 7 10 8 8 7 8 9 9 9 9 9 9 8 8 8 7 7 7 7 7 7 7 7 6 6 6 6 6 6 6 6 6 6 6 6 6 6 5 5 5 5 6 6 6 5 4 4 5 5 4 4 4 4 4 6 6
6 7 7 9 8 7 8 9 8 7 6 7 6 7 7 7 7 7 8 9 9 10 10 9 8 7 9 11 13 13 11 9 8 9 9 9 9 9 9 9 8 8 8 8 7 7 7 6 6 6 6 6 6 6 5 6 5 5 6 5 5 5 5 5 5 5 5 5 5 5 5 5 5 6 6 6 5 5 4 3 3 2 3 4 5
6 7 7 7 8 8 8 8 7 8 7 6 8 8 7 7 7 8 8 9 9 8 9 9 9 8 13 21 18 19 14 10 9 9 9 9 10 9 9 9 8 8 8 7 7 7 7 7 7 6 6 6 6 6 6 6 6 5 5 5 5 5 4 5 5 4 5 4 4 4 4 4 4 3 5 6 7 6 6 4 4 3 3 3 3
7 7 6 7 8 8 7 7 7 7 8 8 8 7 7 7 7 6 8 8 7 7 9 9 8 8 10 13 14 16 12 10 9 10 9 9 9 9 9 9 8 8 8 7 7 7 7 7 7 7 7 7 7 6 6 6 6 5 5 6 6 6 5 4 4 4 4 4 4 5 6 5 4 4 4 4 5 6 6 7 7 6 5 5 4
7 7 7 7 7 7 7 7 7 7 6 7 7 7 7 7 7 7 8 8 8 8 8 8 7 8 8 9 11 12 10 9 9 9 9 9 9 9 8 8 7 7 7 7 7 7 6 6 6 6 6 6 6 6 6 6 6 6 6 6 5 5 5 5 4 5 5 4 5 5 6 5 5 5 4 4 4 4 6 6 7 7 7 6 6
7 8 8 7 7 7 7 7 6 6 6 6 7 7 7 7 7 7 7 7 7 8 7 7 8 8 9 9 9 10 10 9 9 9 9 9 9 9 8 8 7 7 7 7 7 7 6 6 6 6 6 6 6 6 6 5 5 5 5 5 5 5 5 5 5 5 4 5 4 5 5 5 6 6 6 6 5 5 6 6 6 6 7 8 7
7 7 7 8 8 7 7 7 7 7 7 7 7 7 7 7 7 7 7 8 7 8 8 7 8 8 9 9 8 8 9 9 9 9 8 8 8 8 8 7 8 8 7 7 7 8 7 7 7 6 6 6 6 5 5 5 5 5 5 4 5 5 5 5 5 5 5 5 5 5 5 5 5 5 6 7 7 6 7 8 7 6 6 7 8
8 7 8 8 8 7 8 7 7 7 7 7 7 8 8 7 7 7 8 8 8 8 8 7 7 8 8 9 9 9 8 8 8 8 9 9 9 8 7 8 8 8 7 7 7 7 7 7 6 6 5 5 5 5 5 5 5 5 4 4 4 5 5 5 5 5 5 5 5 5 5 6 7 7 6 6 5 7 7 7 7 9 8 5 6
8 7 7 7 7 8 8 8 9 8 8 8 8 8 7 7 8 8 7 8 8 7 7 7 8 8 8 8 8 8 8 8 8 8 8 8 7 7 8 8 7 7 6 7 6 6 6 5 5 5 5 5 5 4 4 4 4 4 5 5 5 6 8 7 4 4 4 5 4 5 5 5 5 6 7 8 7 7 7 7 5 6 8 8 7
7 7 7 7 7 8 8 8 7 7 7 8 8 9 9 9 9 8 8 8 8 9 8 8 7 8 8 8 8 9 8 8 8 8 7 7 7 6 6 6 7 6 6 6 6 6 6 6 5 5 5 5 4 4 4 4 5 5 5 4 7 12 11 11 7 6 8 6 4 4 4 5 5 6 6 7 7 7 7 8 8 7 7 7 8
7 7 7 7 7 7 7 7 8 8 8 8 8 9 9 9 9 8 8 8 8 9 8 8 8 8 7 8 8 8 8 8 7 7 7 6 6 6 6 6 6 6 6 6 6 6 5 5 6 6 6 6 6 6 5 5 6 7 6 8 12 12 11 10 8 9 7 4 4 3 3 3 4 4 4 5 6 7 7 6 6 6 6 9 8
8 8 7 7 7 7 7 8 9 9 9 9 9 8 9 9 8 8 8 8 8 8 8 8 8 8 8 8 8 8 8 7 6 6 6 6 6 6 6 5 5 5 6 6 6 6 6 6 7 7 7 7 8 8 8 8 8 9 11 14 14 14 13 12 9 11 12 8 4 5 4 5 5 6 6 6 6 6 6 7 6 6 6 6 7
Wind_Direction
330 328 329 326 327 325 325 326 322 318 314 310 307 303 298 291 285 276 275 265 257 250 246 238 228 223 208 206 199 183 186 189 198 201 199 201 204 207 205 201 203 207 206 201 200 199 205 209 207 202 189 194 201 199 199 199 193 196 185 176 182 181 168 168 173 164 84 146 153 158 159 149 151 148 144 149 147 137 125 130 143 135 134 135 117
293 313 321 320 319 317 319 320 317 316 313 310 304 302 300 295 287 284 277 272 256 248 248 247 233 222 215 213 197 189 192 188 180 185 201 205 205 203 200 199 203 203 205 198 202 202 205 213 212 204 192 197 195 198 198 192 194 192 188 181 185 185 185 157 174 165 169 148 122 141 156 163 150 159 156 158 154 141 138 144 151 147 145 141 129
266 283 308 319 317 315 315 316 318 316 314 309 303 300 301 297 293 284 279 276 257 246 248 246 236 223 221 214 196 196 190 186 187 189 196 205 206 198 202 198 194 200 206 209 201 193 203 214 211 199 183 198 201 206 190 192 193 194 184 182 182 184 187 176 153 166 165 175 161 155 166 168 163 168 164 160 147 149 149 158 153 154 146 145 140
274 287 309 317 316 315 313 314 315 314 311 309 303 300 297 297 295 288 282 276 265 258 253 243 232 229 227 214 201 198 197 186 185 193 196 198 203 200 202 196 190 194 205 206 201 194 202 210 206 174 193 215 208 204 192 190 195 191 180 184 178 183 182 185 180 152 167 153 189 169 170 161 161 157 156 145 148 153 164 155 155 157 150 144 136
272 280 301 316 316 315 312 313 314 312 310 306 301 298 298 297 296 289 282 276 257 245 244 230 218 217 218 210 202 200 197 185 184 191 196 198 201 201 201 200 193 196 198 200 199 196 200 208 201 178 188 212 205 201 192 190 196 189 180 176 177 176 176 182 178 162 156 166 156 163 158 166 150 153 153 150 142 139 140 162 170 159 137 129 135
260 270 293 308 310 309 309 309 310 309 308 306 302 297 295 297 297 293 285 282 270 252 246 222 220 218 213 209 204 196 188 189 190 188 189 194 198 197 197 201 200 194 194 200 204 200 201 203 201 188 185 203 202 199 192 190 185 188 179 177 172 168 176 177 169 166 163 164 161 148 171 153 137 161 168 159 156 155 141 132 137 148 144 142 140
246 246 267 281 298 302 304 303 304 305 305 303 301 298 297 297 295 292 289 283 271 252 238 223 218 224 214 223 212 196 194 196 192 191 189 190 191 191 194 197 198 196 186 197 201 198 198 200 200 193 194 199 199 195 188 176 186 189 182 176 168 166 172 175 169 161 159 160 173 167 161 170 156 164 173 166 165 165 158 146 169 173 164 169 168
252 251 258 274 283 294 297 298 300 300 301 302 301 297 295 294 293 291 289 285 275 260 241 219 209 214 210 211 208 197 192 200 199 196 195 193 190 190 192 194 197 192 184 190 194 197 195 198 197 197 196 197 196 195 184 171 183 184 179 171 169 165 168 172 170 161 162 168 170 170 169 158 161 141 142 148 146 143 168 163 177 177 186 190 182
258 255 254 263 275 285 292 296 296 299 301 301 300 298 296 293 291 290 289 287 274 262 245 217 210 207 207 209 203 195 194 199 197 191 191 192 190 189 192 195 192 188 182 189 189 192 193 193 200 198 198 194 196 200 188 182 175 180 179 179 172 167 168 172 173 165 171 170 173 171 166 168 171 156 164 174 183 183 177 164 178 183 166 168 192
258 259 252 257 271 282 291 296 298 300 301 302 302 301 296 294 291 291 293 289 280 264 246 220 204 202 206 205 205 199 197 199 198 190 187 187 183 186 187 192 192 192 193 194 195 192 186 190 194 202 176 187 178 196 170 179 206 193 176 179 174 173 173 170 171 174 173 176 183 176 177 183 176 178 177 185 174 145 154 171 172 165 136 163 158
258 251 255 256 269 283 292 298 301 300 300 301 302 302 299 294 290 290 290 287 280 262 246 247 221 190 195 195 199 205 203 199 196 184 181 182 182 182 182 183 189 193 193 190 189 181 175 156 91 165 172 179 184 195 186 189 198 198 185 185 179 174 171 172 178 176 178 184 183 180 182 181 186 183 183 173 178 169 174 176 165 148 170 165 201
253 257 247 260 270 283 292 298 300 300 302 303 303 301 297 291 287 285 283 280 276 261 248 236 226 206 200 194 198 209 212 202 193 187 180 180 182 182 179 176 184 191 188 185 178 167 148 127 134 144 152 161 188 193 193 196 201 199 189 190 181 191 186 176 171 176 182 179 182 190 182 190 185 175 177 175 181 172 171 169 168 172 171 187 186
249 255 254 254 272 281 293 298 300 301 303 303 301 299 296 290 287 288 282 277 284 276 258 240 218 210 205 195 192 207 222 202 185 185 183 181 183 180 177 173 176 181 170 156 146 140 137 123 111 122 146 163 176 194 185 188 211 219 203 200 195 191 200 208 192 179 176 176 183 188 193 180 179 190 188 186 168 172 160 175 180 177 180 187 198
245 252 258 261 270 284 294 299 299 300 302 301 299 296 293 287 285 285 281 277 275 280 274 245 216 206 202 201 199 202 207 193 183 181 182 183 182 174 167 169 169 170 168 161 155 147 145 147 149 157 168 177 191 190 173 172 174 182 197 202 194 201 198 197 209 204 193 185 181 190 192 175 188 187 182 153 165 178 171 184 177 175 182 199 195
251 250 258 266 275 286 293 295 299 301 301 299 297 294 289 284 287 289 281 274 278 284 285 252 214 201 202 199 194 191 209 182 182 181 180 178 171 169 168 167 161 157 158 159 157 154 154 161 160 161 167 173 190 185 171 171 163 169 182 184 195 194 193 187 191 194 195 202 200 194 185 189 187 175 172 174 183 181 179 181 180 183 166 74 61
253 255 261 268 277 282 287 296 299 299 298 297 296 294 288 285 289 287 282 276 274 275 270 245 214 203 199 196 189 187 184 177 178 176 173 171 170 170 169 163 152 149 158 162 160 161 162 161 159 159 154 162 187 183 172 165 161 172 178 186 192 199 205 196 183 193 196 192 194 192 193 195 181 177 176 172 172 154 136 98 101 120 143 164 186
252 254 261 270 276 281 288 296 298 296 296 296 295 292 288 290 289 283 277 276 280 276 269 244 216 198 193 190 181 175 160 181 173 167 165 167 167 169 164 154 149 151 159 163 161 152 150 159 158 163 167 182 185 184 168 165 169 173 171 178 189 194 219 189 160 155 148 124 97 149 151 166 177 181 178 165 161 148 132 137 165 156 157 177 196
252 254 261 268 273 284 293 295 295 295 295 293 291 287 284 284 284 279 274 279 280 278 269 229 201 179 172 180 173 165 160 171 172 167 165 168 164 161 157 151 149 152 157 161 154 154 161 165 162 163 171 186 184 186 169 169 167 168 169 172 176 193 210 172 136 126 77 88 87 101 147 166 172 185 182 172 164 156 154 175 174 161 180 183 188
254 253 261 270 285 291 294 294 291 291 291 289 284 281 280 285 286 277 271 269 276 285 260 188 174 166 163 165 167 165 156 163 170 168 168 164 156 153 149 146 149 156 153 151 156 163 171 169 166 168 173 181 178 184 169 172 159 166 170 164 171 186 190 166 161 156 167 164 151 119 89 138 156 166 184 188 182 181 183 173 160 170 178 186 175
250 254 269 287 292 292 292 293 290 290 289 285 281 274 282 290 278 272 268 271 279 276 249 176 159 160 158 160 162 157 122 110 145 149 153 154 149 144 146 146 157 158 152 146 152 164 167 163 165 168 171 169 174 175 172 172 157 157 159 170 167 189 167 163 178 173 171 175 169 145 144 145 137 162 134 154 194 206 198 177 172 174 173 177 181
256 260 288 293 293 292 290 290 290 288 281 278 276 280 285 281 280 278 268 266 276 286 331 70 149 142 133 118 128 139 142 136 158 160 160 150 143 151 153 156 155 148 144 148 156 157 151 148 122 149 155 168 175 179 180 185 153 154 169 188 182 139 136 167 183 178 160 157 152 149 139 135 140 151 162 172 181 209 221 210 179 183 173 176 180
255 291 311 295 295 292 296 293 289 285 280 276 280 287 288 284 284 268 265 240 259 284 325 343 62 124 110 108 87 84 137 145 141 166 153 142 131 135 148 152 148 138 139 146 147 145 150 143 142 155 158 168 178 179 183 181 168 162 191 149 103 123 154 143 146 148 146 141 139 144 154 160 167 174 188 196 193 201 212 208 196 200 201 186 182
275 345 305 298 295 299 301 298 297 291 282 278 282 278 281 288 291 291 287 292 237 73 316 7 16 72 86 80 74 70 61 43 100 136 139 138 132 143 140 141 133 137 142 149 149 144 141 132 134 142 149 164 174 179 177 177 174 196 180 151 140 127 140 129 147 141 137 141 146 165 180 186 193 196 191 206 208 203 211 211 206 204 216 233 230
26 344 300 298 294 308 308 300 296 292 283 283 265 273 285 287 283 273 281 294 355 58 147 46 70 75 70 69 67 68 66 85 46 64 96 100 103 105 108 115 130 134 134 133 131 133 131 136 140 143 139 145 154 165 175 177 192 181 147 155 144 144 139 142 147 152 140 148 162 171 189 191 192 199 206 206 201 195 201 201 209 209 211 224 226
34 313 298 294 313 317 311 302 302 301 295 274 201 312 305 291 273 267 296 327 24 69 38 81 75 80 86 86 82 53 74 78 78 61 74 90 96 99 98 95 97 104 103 101 110 119 120 117 115 112 114 119 128 143 155 179 189 166 142 141 151 152 153 150 155 146 158 168 183 188 195 197 198 204 197 193 174 140 152 182 197 210 216 221 226
358 303 293 305 330 328 313 309 314 309 301 339 14 334 285 289 291 298 343 356 15 29 68 72 74 83 81 81 77 62 46 46 54 60 57 72 73 80 90 96 92 88 92 97 100 98 99 96 94 92 87 89 96 85 84 107 182 166 150 154 148 151 150 147 152 161 169 180 183 199 202 183 194 177 151 145 157 189 186 189 185 209 196 203 224
305 298 305 331 352 329 315 315 303 289 7 343 322 332 319 317 287 289 75 38 19 19 57 83 77 80 88 88 86 77 71 62 45 29 4 54 72 82 83 78 90 94 95 100 93 90 90 84 82 83 85 77 80 93 88 87 94 116 187 179 154 145 148 155 166 167 172 175 194 209 196 177 155 144 162 170 190 201 188 188 190 213 191 201 203
280 290 315 7 349 325 314 324 339 360 350 335 329 337 346 343 311 349 42 60 53 39 53 80 88 95 97 98 100 97 90 81 77 103 79 76 74 71 79 78 75 87 90 84 93 90 84 83 82 76 84 71 75 77 74 81 94 83 117 269 221 141 154 160 128 137 158 169 172 155 156 161 193 205 185 183 196 197 182 185 196 206 198 178 191
272 322 347 16 340 323 311 329 345 338 345 321 348 16 359 328 306 38 346 49 77 81 83 75 83 93 98 103 107 102 100 100 112 106 96 99 108 99 88 86 79 68 67 88 85 84 82 68 64 65 67 86 67 74 91 102 96 111 127 84 68 74 133 176 175 182 175 161 181 189 192 186 210 205 194 195 204 197 180 193 205 205 194 185 211
309 348 18 7 328 317 315 328 335 342 346 349 333 353 319 360 30 99 108 76 84 80 91 99 99 108 93 63 75 111 114 121 112 98 89 80 73 74 76 77 82 91 70 70 93 88 83 94 94 104 102 91 95 85 86 101 132 133 124 131 135 155 190 206 223 166 109 138 136 151 180 196 220 204 200 207 214 201 188 184 201 190 184 199 218
355 8 15 356 321 315 324 339 343 348 357 347 326 334 320 19 52 57 74 63 92 99 90 99 100 91 97 97 61 64 88 94 93 92 86 81 80 76 75 75 80 82 62 71 43 66 77 82 76 74 81 87 101 135 128 115 337 334 121 134 162 169 185 204 204 160 158 159 185 213 196 176 210 225 223 208 214 212 204 220 201 182 200 209 222
48 33 24 348 318 319 329 343 345 340 332 345 356 12 346 300 93 86 71 54 50 78 99 93 94 94 105 111 107 69 66 89 99 98 97 91 87 84 80 79 76 75 68 83 75 62 65 70 63 63 82 80 74 57 90 155 172 176 135 157 214 206 198 216 200 174 172 180 196 203 200 198 213 214 213 212 206 205 204 208 207 205 211 215 225
131 254 47 342 317 322 343 341 335 323 327 338 2 351 308 9 47 36 79 91 81 74 84 101 105 103 90 82 97 115 124 111 103 99 97 101 97 88 80 72 81 86 73 66 94 79 63 61 54 40 49 60 99 110 109 120 141 161 169 190 232 221 228 259 107 191 189 196 193 203 204 212 218 231 215 186 186 211 208 218 216 214 214 219 226
110 49 351 332 325 320 331 327 319 318 325 336 342 346 355 8 31 49 47 33 37 47 51 60 84 96 92 103 107 106 105 106 100 107 110 111 110 103 91 79 60 47 80 97 87 87 72 62 37 18 2 3 7 41 84 117 135 144 200 215 232 239 242 177 163 208 210 199 202 208 202 206 205 209 214 195 202 203 212 220 220 220 223 220 226
162 170 184 203 245 287 299 307 307 306 311 324 336 349 352 342 39 59 54 51 49 36 65 57 28 59 106 102 111 115 115 109 100 98 93 94 99 106 101 80 55 38 42 49 66 67 67 60 44 16 1 355 349 358 358 4 31 53 59 25 354 344 331 245 236 226 226 221 221 218 213 210 210 211 209 198 192 211 217 212 214 220 229 230 226
300 238 195 192 212 227 257 269 281 284 296 316 326 336 335 7 50 48 54 53 45 37 29 63 81 64 83 93 94 104 100 88 90 74 67 60 34 32 64 63 62 51 52 38 53 51 53 44 36 25 22 25 28 35 39 44 44 50 44 53 54 51 45 37 23 2 288 290 288 318 320 292 267 251 241 225 208 215 228 227 225 218 218 222 225
8 10 14 326 262 267 316 315 311 304 311 323 342 358 12 29 40 44 48 47 40 33 30 65 98 77 52 41 67 65 64 71 69 68 63 50 51 66 75 79 80 64 52 45 51 58 54 43 48 51 45 48 43 41 44 48 45 49 49 51 53 54 47 42 40 42 42 38 25 20 345 292 309 299 292 275 267 252 242 240 234 231 224 224 214
31 18 359 350 339 5 39 32 16 11 12 17 16 22 35 36 38 48 51 49 50 43 32 30 45 62 64 41 37 90 86 81 76 63 53 48 47 59 64 66 64 66 64 55 54 61 64 53 47 52 44 43 41 33 39 42 41 44 45 47 49 54 51 47 38 38 37 40 39 37 31 26 14 359 332 296 287 287 280 272 263 259 245 236 220
26 23 18 14 26 22 31 46 38 30 26 25 19 25 35 34 38 40 45 54 51 49 44 43 34 27 10 29 76 77 77 51 60 67 61 57 54 56 64 62 64 63 59 58 54 57 57 59 51 50 47 41 38 34 33 32 33 39 37 44 46 40 39 37 36 30 34 29 29 29 33 23 12 11 11 9 9 0 343 330 312 290 277 261 236
30 25 19 24 35 33 35 34 41 45 32 25 22 17 30 32 33 40 53 60 58 55 52 45 34 13 355 57 105 91 79 74 68 72 69 60 58 53 56 59 56 55 53 52 50 51 55 54 52 52 49 44 38 35 32 24 25 27 29 38 40 43 36 35 26 23 28 23 23 18 17 10 359 349 356 2 350 334 332 335 336 322 310 302 291
39 32 31 27 24 36 39 35 35 35 32 32 22 25 25 20 26 44 62 67 71 69 61 54 40 19 25 52 73 84 89 83 75 66 62 66 60 56 53 51 52 50 47 45 42 44 48 49 45 50 47 43 37 34 33 27 19 23 28 24 34 39 30 34 25 15 14 14 9 11 10 360 347 344 340 333 327 309 293 289 292 310 325 317 310
48 48 41 35 29 39 39 36 32 28 32 31 29 22 17 19 27 46 65 72 72 74 74 64 53 47 41 49 62 73 78 71 70 72 66 64 63 59 55 52 48 48 47 41 35 39 42 45 44 44 43 38 37 33 29 31 24 19 22 21 28 23 25 28 15 4 9 0 356 352 346 335 330 322 306 307 314 313 305 305 304 305 308 302 298
37 45 50 49 45 42 43 39 32 36 37 33 26 20 22 26 35 49 66 67 69 72 78 75 67 59 54 45 56 66 72 68 67 67 67 64 63 62 57 55 50 49 48 45 40 39 43 46 44 41 38 36 33 29 28 26 20 15 17 19 20 15 10 12 1 5 357 345 340 333 327 317 316 300 281 276 278 291 294 300 300 295 285 276 280
48 46 43 51 55 53 47 43 41 43 43 38 41 36 30 34 40 53 66 69 68 70 73 74 73 67 63 50 54 61 65 62 63 65 65 65 63 62 60 56 55 53 50 48 44 42 44 46 46 41 41 36 33 30 31 25 17 17 13 11 9 1 1 2 353 351 340 326 322 319 317 313 302 289 277 265 263 263 270 273 281 285 290 284 275
50 50 53 53 49 57 54 48 48 48 41 42 44 40 38 43 48 52 63 69 67 67 63 65 67 69 66 57 56 62 65 66 65 65 64 64 65 63 62 59 55 54 52 50 46 45 46 46 44 41 36 32 27 27 28 27 24 14 14 4 357 351 348 337 331 320 310 301 293 292 291 296 308 311 303 301 290 284 271 258 252 259 266 270 273
53 57 55 57 56 53 52 54 49 47 45 45 46 48 44 45 47 51 58 66 67 69 67 60 60 63 67 67 63 63 65 67 65 64 65 66 66 65 63 62 60 57 56 52 50 52 48 45 43 40 35 29 22 14 10 10 6 5 358 353 341 329 320 313 308 299 293 294 297 297 297 293 282 283 283 289 291 285 282 280 273 258 253 255 255
54 58 61 64 64 65 64 61 58 59 57 54 55 56 53 49 53 53 52 55 63 68 68 63 60 63 68 69 68 67 67 67 68 68 69 70 70 70 68 66 65 60 54 53 51 49 49 47 44 42 35 23 9 7 360 355 351 347 341 331 323 320 310 306 299 289 281 274 266 263 277 287 289 295 284 280 280 282 282 282 287 289 284 273 270
52 54 59 64 65 67 64 64 66 61 64 65 66 64 61 61 58 57 57 56 58 61 67 69 71 70 73 75 75 75 74 76 75 75 74 72 69 70 70 68 64 62 58 54 49 43 43 41 42 39 36 27 16 4 354 345 341 338 333 331 333 333 324 324 305 302 294 294 276 270 268 275 279 281 283 283 281 281 279 280 271 266 273 278 274
45 51 56 56 63 64 66 65 67 68 69 71 71 70 68 65 63 63 61 62 61 62 60 68 74 76 78 78 81 81 78 75 74 74 70 67 64 62 63 64 65 63 62 59 51 46 40 35 32 32 31 25 17 6 0 355 351 350 340 335 338 339 344 348 344 332 322 309 286 282 272 266 274 276 278 279 281 278 272 269 264 260 257 253 256
45 44 45 47 53 59 66 71 72 73 71 70 72 74 70 70 68 67 66 68 68 66 67 68 72 68 71 74 77 77 74 74 75 73 73 70 65 61 59 56 53 54 57 58 54 47 42 33 28 24 19 17 12 9 2 1 356 351 351 348 346 351 353 350 345 344 346 324 313 315 321 323 315 310 310 305 309 305 299 290 288 279 270 262 256
51 51 50 47 47 48 52 61 65 66 67 69 67 68 70 71 71 68 70 70 72 72 73 73 74 73 73 72 75 75 76 76 74 73 71 66 63 61 57 54 53 54 54 52 47 42 36 32 25 19 14 12 9 5 2 357 357 350 342 345 351 352 355 359 358 353 356 358 348 347 356 359 356 351 342 338 328 320 305 298 287 278 270 264 260